Regional Weather Roundup
Issued by NWS

Home | Current Version | Previous Version | Graphics & Text | Print | Product List | Glossary On
Versions: 1 2 3 4 5 6 7 8 9 10 11 12 13 14 15 16 17 18 19 20 21 22 23 24 25 26 27 28 29 30 31 32 33 34 35 36 37 38 39 40 41 42 43 44 45 46 47 48 49 50
000
ASUS43 KMPX 310410
RWRMN
WEATHER ROUNDUP FOR MINNESOTA
NATIONAL WEATHER SERVICE TWIN CITIES/CHANHASSEN MN
1100 PM CDT SUN AUG 30 2015


NOTE: "FAIR" INDICATES FEW OR NO CLOUDS BELOW 12,000 FEET WITH NO
SIGNIFICANT WEATHER AND/OR OBSTRUCTIONS TO VISIBILITY. N/A MEANS
CURRENT SKY AND/OR WEATHER CONDITIONS ARE NOT AVAILABLE.

MNZ060>063-068>070-310500-
   Twin Cities Metro

CITY           SKY/WX    TMP DP  RH WIND       PRES   REMARKS
TWIN CITIES    MOCLDY    70  65  84 S8        29.93F
ST PAUL        CLEAR     67  65  93 SE7       29.94S
CRYSTAL        CLEAR     71  65  81 S9        29.91S
BLAINE         CLEAR     72  68  88 S9        29.93R
LAKEVILLE      CLEAR     64  64 100 S3        29.94F
EDEN PRAIRIE   CLEAR     68  65  90 S9        29.92S
SOUTH ST PAUL  CLEAR     68  65  89 S5        29.93F
LAKE ELMO      FAIR      66  64  94 S7        29.95F
$$
MNZ001>005-007-008-013>017-022>024-027-028-310500-
   Northwest Minnesota

CITY           SKY/WX    TMP DP  RH WIND       PRES   REMARKS
BEMIDJI        PTCLDY    71  66  85 S9        29.80S
HALLOCK        CLEAR     75  70  83 S18       29.65R
ROSEAU         MOCLDY    73  66  78 S13       29.70R
WARROAD        MOCLDY    73  70  88 S9G16     29.71S
THIEF RVR FALL PTCLDY   N/A N/A N/A S12       29.71F
CROOKSTON      PTCLDY    73  66  78 S16G23    29.71S
FOSSTON        MOCLDY    70  63  78 S10       29.77S
DETROIT LAKES  PTCLDY    72  64  78 S13       29.81S
MOORHEAD       PTCLDY    73  66  78 S14       29.74F
PARK RAPIDS      N/A     71  65  81 S12       29.83S
MAHNOMEN       FAIR      72  65  79 S9        29.76F
$$
MNZ006-009>011-018-025>026-310500-
   North Central Minnesota

CITY           SKY/WX    TMP DP  RH WIND       PRES   REMARKS
BAUDETTE       MOCLDY    71  67  87 S10       29.74S
FLAG ISLAND    MOCLDY    70  66  88 S12       29.69S
INTL FALLS     MOCLDY    70  67  90 VRB3      29.78F
WASKISH        PTCLDY    72  68  88 SE9G16    29.76F
BIG FORK       PTCLDY    70  66  88 S7        29.83F
LONGVILLE      PTCLDY    70  66  88 S7        29.85S
GRAND RAPIDS     N/A     68  63  83 S15       29.86S
CRANE LAKE     PTCLDY    66  66 100 S5        29.83F
ORR            PTCLDY    70  63  78 S6        29.81F
COOK           MOCLDY    70  66  88 S5        29.85S
WALKER         FAIR      71  65  83 S10       29.81F
$$
MNZ012-019>021-037-310500-
   Northeast Minnesota

CITY           SKY/WX    TMP DP  RH WIND       PRES   REMARKS
DULUTH         CLEAR     68  64  87 SW9       29.89F
ELY            CLEAR     70  63  78 SW9       29.86F
HIBBING        PTCLDY    68  64  87 SE3       29.87S
EVELETH        PTCLDY    66  63  88 S3        29.89S
DULUTH HARBOR  CLEAR     70  64  83 SW7       29.88S
TWO HARBORS    PTCLDY    70  64  83 W5        29.87S
SILVER BAY     PTCLDY    70  64  83 CALM      29.87R
GRAND MARAIS     N/A     58  56  93 CALM      29.85F
G MARAIS ARPRT FOG       64  61  88 CALM      29.91S VSB 1/2
$$
MNZ029>031-032-039>041-046>048-054>057-064-310500-
   West Central Minnesota

CITY           SKY/WX    TMP DP  RH WIND       PRES   REMARKS
FERGUS FALLS   FAIR      70  63  78 S14       29.79S
WHEATON        PTCLDY    64  61  88 SE13      29.79F
MORRIS         PTCLDY    66  64  94 SE12      29.82F
ALEXANDRIA     PTCLDY    69  64  84 S14       29.86F
ELBOW LAKE     FAIR      68  64  85 SE15      29.81F
WADENA         PTCLDY    68  63  83 S8        29.84S
GLENWOOD       MOCLDY    68  64  88 S13       29.87S
APPLETON       PTCLDY    70  63  78 S10G16    29.83S
BENSON         MOCLDY    66  63  88 S9        29.85S
ORTONVILLE     PTCLDY    64  61  88 SE9       29.81F
MADISON        PTCLDY    64  61  88 S7        29.83F
WILLMAR        FAIR      68  66  94 S7        29.90S
$$
MNZ033>034-036-042>043-049>051-058-059-310500-
   Central Minnesota

CITY           SKY/WX    TMP DP  RH WIND       PRES   REMARKS
ST CLOUD       CLEAR     68  67  96 S9        29.89F
SAUK CENTRE    FAIR      66  65  96 SE6       29.88S
PAYNESVILLE    PTCLDY    68  66  93 SE10      29.89S
AITKIN         PTCLDY    70  64  83 S8        29.86F
PINE RIVER     PTCLDY    66  66 100 SE7       29.89S
BRAINERD       PTCLDY    69  66  90 S13       29.87S
STAPLES        PTCLDY    68  64  88 S10       29.85F
LONG PRAIRIE   MOCLDY    66  64  94 SE8       29.88S
LITTLE FALLS   PTCLDY    68  64  88 S6        29.88S
LITCHFIELD     CLEAR     70  68  94 S5        29.91R
BUFFALO        CLEAR     68  64  88 S6        29.92S
MAPLE LAKE     CLEAR     68  67  94 S6        29.91F
$$
MNZ037-044-045-052-053-310500-
   East Central Minnesota

CITY           SKY/WX    TMP DP  RH WIND       PRES   REMARKS
PRINCETON      CLEAR     70  66  88 S8        29.90F
MORA           CLEAR     64  61  88 S5        29.92S
CAMBRIDGE      CLEAR     72  61  68 S8        29.89F
RUSH CITY      MOCLDY    67  64  91 S7        29.91S
MOOSE LAKE     MOCLDY    66  63  88 S5        29.88S
HINCKLEY       FAIR      68  66  94 S3        29.91S
CLOQUET        CLEAR     68  64  88 S8        29.89F
MCGREGOR       PTCLDY    68  64  88 S8        29.88F
$$
MNZ071>073-080-081-089-090-097-098-310500-
   Southwest Minnesota

CITY           SKY/WX    TMP DP  RH WIND       PRES   REMARKS
MONTEVIDEO     MOCLDY    66  64  94 S9        29.87S
GRANITE FALLS  MOCLDY    66  65  96 SE8       29.89S
CANBY          MOCLDY    69  61  75 S13G18    29.85S
MARSHALL       MOCLDY    66  61  82 S15G21    29.88F
REDWOOD FALLS  PTCLDY    67  65  93 S10       29.90S
OLIVIA         PTCLDY    68  63  83 S8        29.89S
PIPESTONE      CLOUDY    66  64  94 S12G17    29.92S FOG
WINDOM         CLEAR     66  64  94 S9        29.94R
WORTHINGTON    PTCLDY    64  61  88 S13       29.94S
JACKSON        CLEAR     66  64  94 S12       29.96S FOG
TRACY          PTCLDY    67  65  94 SW18G24   29.90R
SLAYTON        PTCLDY    65  65 100 S13       29.94S FOG
$$
MNZ065>067-074>077-082>085-091>093-310500-
   South Central Minnesota

CITY           SKY/WX    TMP DP  RH WIND       PRES   REMARKS
MANKATO        CLEAR     64  61  88 S7        29.94F
NEW ULM        CLEAR     66  64  94 S10       29.91F
ST JAMES       CLEAR     66  66 100 S8        29.94S
FAIRMONT       CLEAR     64  61  88 S7        29.95S
GLENCOE        CLEAR     68  66  94 S7        29.92S
FARIBAULT      CLEAR     64  63  94 S5        29.96S
OWATONNA       CLEAR     64  63  94 S7        29.97S
WASECA         CLEAR     63  61  94 S6        29.97S
ALBERT LEA     CLEAR     66  64  94 S6        29.97F
$$
MNZ078>079-086>088-094>096-310500-
   Southeast Minnesota

CITY           SKY/WX    TMP DP  RH WIND       PRES   REMARKS
ROCHESTER      CLEAR     61  60  97 S8        30.00S
RED WING       CLEAR     66  63  88 S3        29.95S
STANTON        CLEAR     65  62  90 S5        29.94F
DODGE CENTER   CLEAR     63  61  94 S8        29.98S
WINONA         CLEAR     63  61  94 CALM      29.98S
PRESTON        CLEAR     62  60  94 S8        30.00F
$$
ABBREVIATIONS USED IN REMARKS
   TC - TEMPERATURES IN CELSIUS
  WCI - WIND CHILL INDEX
   HX - HEAT INDEX
  VSB - VISIBILITY
$$



USA.gov is the U.S. government's official web portal to all federal, state and local government web resources and services.